Time,TemperatureF,DewpointF,PressureIn,WindDirection,WindDirectionDegrees,WindSpeedMPH,WindSpeedGustMPH,Humidity,HourlyPrecipIn,Conditions,Clouds,dailyrainin,SoftwareType,DateUTC
2013-08-09 00:00:00,72.3,70.2,29.48,West,270,4.0,5.0,93,0.00,,,0.04,meteohub,2013-08-09 05:00:00,
2013-08-09 00:05:00,72.3,69.8,29.48,WNW,292,2.0,5.0,92,0.00,,,0.04,meteohub,2013-08-09 05:05:00,
2013-08-09 00:11:00,72.3,69.8,29.48,NW,315,3.0,5.0,92,0.00,,,0.04,meteohub,2013-08-09 05:11:00,
2013-08-09 00:16:00,72.1,69.6,29.48,WNW,292,2.0,5.0,92,0.00,,,0.04,meteohub,2013-08-09 05:16:00,
2013-08-09 00:21:00,72.1,69.6,29.48,NW,315,0.0,4.0,92,0.00,,,0.04,meteohub,2013-08-09 05:21:00,
2013-08-09 00:26:00,72.1,69.6,29.48,North,0,0.0,4.0,92,0.00,,,0.04,meteohub,2013-08-09 05:26:00,
2013-08-09 00:31:00,72.1,69.6,29.45,North,0,0.0,3.0,92,0.00,,,0.04,meteohub,2013-08-09 05:31:00,
2013-08-09 00:36:00,72.1,69.6,29.45,WNW,292,2.0,3.0,92,0.00,,,0.04,meteohub,2013-08-09 05:36:00,
2013-08-09 00:42:00,72.0,69.4,29.45,NNW,338,1.0,3.0,92,0.00,,,0.04,meteohub,2013-08-09 05:42:00,
2013-08-09 00:47:00,72.0,69.4,29.45,NW,315,3.0,4.0,92,0.00,,,0.04,meteohub,2013-08-09 05:47:00,
2013-08-09 00:52:00,72.0,69.4,29.45,NW,315,3.0,4.0,92,0.00,,,0.04,meteohub,2013-08-09 05:52:00,
2013-08-09 00:57:00,72.0,69.4,29.45,NNW,338,2.0,4.0,92,0.00,,,0.04,meteohub,2013-08-09 05:57:00,
2013-08-09 01:02:00,72.0,69.4,29.45,NNW,338,2.0,4.0,92,0.00,,,0.04,meteohub,2013-08-09 06:02:00,
2013-08-09 01:07:00,71.8,69.3,29.45,North,0,3.0,4.0,92,0.00,,,0.04,meteohub,2013-08-09 06:07:00,
2013-08-09 01:12:00,71.8,69.3,29.45,NW,315,4.0,5.0,92,0.00,,,0.04,meteohub,2013-08-09 06:12:00,
2013-08-09 01:17:00,71.8,69.3,29.45,North,0,2.0,5.0,92,0.00,,,0.04,meteohub,2013-08-09 06:17:00,
2013-08-09 01:22:00,71.6,69.1,29.45,NNW,338,3.0,5.0,92,0.00,,,0.04,meteohub,2013-08-09 06:22:00,
2013-08-09 01:27:00,71.6,69.1,29.45,NNW,338,2.0,5.0,92,0.00,,,0.04,meteohub,2013-08-09 06:27:00,
2013-08-09 01:32:00,71.8,69.3,29.42,NNW,338,2.0,4.0,92,0.00,,,0.04,meteohub,2013-08-09 06:32:00,
2013-08-09 01:38:00,71.6,69.1,29.42,NW,315,0.0,3.0,92,0.00,,,0.04,meteohub,2013-08-09 06:38:00,
2013-08-09 01:43:00,71.6,69.1,29.45,NW,315,1.0,3.0,92,0.00,,,0.04,meteohub,2013-08-09 06:43:00,
2013-08-09 01:48:00,71.6,69.1,29.45,North,0,2.0,4.0,92,0.00,,,0.04,meteohub,2013-08-09 06:48:00,
2013-08-09 01:53:00,71.6,69.1,29.45,North,0,2.0,4.0,92,0.00,,,0.04,meteohub,2013-08-09 06:53:00,
2013-08-09 01:58:00,71.4,69.3,29.45,NNW,338,3.0,4.0,93,0.00,,,0.04,meteohub,2013-08-09 06:58:00,
2013-08-09 02:03:00,71.4,69.3,29.45,NNW,338,1.0,4.0,93,0.00,,,0.04,meteohub,2013-08-09 07:03:00,
2013-08-09 02:09:00,71.4,69.3,29.45,NNW,338,1.0,4.0,93,0.00,,,0.04,meteohub,2013-08-09 07:09:00,
2013-08-09 02:14:00,71.2,69.1,29.48,North,0,1.0,4.0,93,0.00,,,0.04,meteohub,2013-08-09 07:14:00,
2013-08-09 02:19:00,71.2,69.1,29.48,NW,315,2.0,4.0,93,0.00,,,0.04,meteohub,2013-08-09 07:19:00,
2013-08-09 02:25:00,71.2,69.1,29.48,NW,315,3.0,3.0,93,0.00,,,0.04,meteohub,2013-08-09 07:25:00,
2013-08-09 02:30:00,71.1,68.9,29.48,NNW,338,2.0,4.0,93,0.00,,,0.04,meteohub,2013-08-09 07:30:00,
2013-08-09 02:35:00,71.2,69.1,29.48,NW,315,1.0,4.0,93,0.00,,,0.04,meteohub,2013-08-09 07:35:00,
2013-08-09 02:40:00,71.2,69.1,29.48,NNE,22,1.0,3.0,93,0.00,,,0.04,meteohub,2013-08-09 07:40:00,
2013-08-09 02:46:00,71.4,69.6,29.48,North,0,2.0,4.0,94,0.00,,,0.04,meteohub,2013-08-09 07:46:00,
2013-08-09 02:51:00,71.6,69.4,29.48,NNE,22,3.0,4.0,93,0.00,,,0.04,meteohub,2013-08-09 07:51:00,
2013-08-09 02:56:00,71.6,69.4,29.48,NNE,22,3.0,5.0,93,0.00,,,0.04,meteohub,2013-08-09 07:56:00,
2013-08-09 03:01:00,71.6,69.8,29.48,NNE,22,4.0,5.0,94,0.00,,,0.04,meteohub,2013-08-09 08:01:00,
2013-08-09 03:06:00,71.6,69.8,29.48,North,0,4.0,6.0,94,0.00,,,0.04,meteohub,2013-08-09 08:06:00,
2013-08-09 03:11:00,71.6,69.8,29.48,NE,45,5.0,6.0,94,0.00,,,0.04,meteohub,2013-08-09 08:11:00,
2013-08-09 03:16:00,71.6,69.8,29.48,North,0,4.0,7.0,94,0.00,,,0.04,meteohub,2013-08-09 08:16:00,
2013-08-09 03:22:00,71.6,69.8,29.48,North,0,4.0,7.0,94,0.00,,,0.04,meteohub,2013-08-09 08:22:00,
2013-08-09 03:27:00,71.6,69.8,29.48,NNE,22,4.0,7.0,94,0.00,,,0.04,meteohub,2013-08-09 08:27:00,
2013-08-09 03:32:00,71.6,69.8,29.48,NNE,22,5.0,7.0,94,0.00,,,0.04,meteohub,2013-08-09 08:32:00,
2013-08-09 03:37:00,71.4,69.6,29.48,NNE,22,4.0,7.0,94,0.00,,,0.04,meteohub,2013-08-09 08:37:00,
2013-08-09 03:43:00,71.4,69.6,29.48,North,0,7.0,7.0,94,0.00,,,0.04,meteohub,2013-08-09 08:43:00,
2013-08-09 03:48:00,71.4,69.6,29.48,NNE,22,3.0,7.0,94,0.00,,,0.04,meteohub,2013-08-09 08:48:00,
2013-08-09 03:54:00,71.2,69.4,29.48,NNE,22,4.0,9.0,94,0.00,,,0.04,meteohub,2013-08-09 08:54:00,
2013-08-09 03:59:00,71.2,69.4,29.48,North,0,4.0,9.0,94,0.00,,,0.04,meteohub,2013-08-09 08:59:00,
2013-08-09 04:04:00,71.2,69.1,29.48,NNE,22,4.0,9.0,93,0.00,,,0.04,meteohub,2013-08-09 09:04:00,
2013-08-09 04:10:00,71.1,68.9,29.48,North,0,4.0,6.0,93,0.00,,,0.04,meteohub,2013-08-09 09:10:00,
2013-08-09 04:15:00,70.9,68.7,29.48,NE,45,3.0,6.0,93,0.00,,,0.04,meteohub,2013-08-09 09:15:00,
2013-08-09 04:20:00,70.9,68.7,29.48,NE,45,4.0,6.0,93,0.00,,,0.04,meteohub,2013-08-09 09:20:00,
2013-08-09 04:26:00,70.7,68.5,29.48,NNE,22,4.0,6.0,93,0.00,,,0.04,meteohub,2013-08-09 09:26:00,
2013-08-09 04:31:00,70.7,68.5,29.48,NE,45,5.0,6.0,93,0.00,,,0.04,meteohub,2013-08-09 09:31:00,
2013-08-09 04:36:00,70.5,68.0,29.48,NNE,22,1.0,6.0,92,0.00,,,0.04,meteohub,2013-08-09 09:36:00,
2013-08-09 04:41:00,70.5,68.0,29.48,North,0,4.0,6.0,92,0.00,,,0.04,meteohub,2013-08-09 09:41:00,
2013-08-09 04:47:00,70.3,67.8,29.48,NE,45,2.0,5.0,92,0.00,,,0.04,meteohub,2013-08-09 09:47:00,
2013-08-09 04:52:00,70.3,67.8,29.48,NE,45,2.0,4.0,92,0.00,,,0.04,meteohub,2013-08-09 09:52:00,
2013-08-09 04:57:00,70.2,67.5,29.48,North,0,2.0,4.0,91,0.00,,,0.04,meteohub,2013-08-09 09:57:00,
2013-08-09 05:02:00,70.2,67.6,29.51,North,0,2.0,3.0,92,0.00,,,0.04,meteohub,2013-08-09 10:02:00,
2013-08-09 05:07:00,70.2,67.5,29.51,North,0,2.0,3.0,91,0.00,,,0.04,meteohub,2013-08-09 10:07:00,
2013-08-09 05:13:00,70.2,67.5,29.51,NNE,22,2.0,3.0,91,0.00,,,0.04,meteohub,2013-08-09 10:13:00,
2013-08-09 05:18:00,70.2,67.5,29.51,North,0,3.0,3.0,91,0.00,,,0.04,meteohub,2013-08-09 10:18:00,
2013-08-09 05:23:00,70.2,67.5,29.51,NNE,22,4.0,4.0,91,0.00,,,0.04,meteohub,2013-08-09 10:23:00,
2013-08-09 05:28:00,70.2,67.5,29.51,North,0,2.0,3.0,91,0.00,,,0.04,meteohub,2013-08-09 10:28:00,
2013-08-09 05:33:00,70.0,67.3,29.51,North,0,4.0,4.0,91,0.00,,,0.04,meteohub,2013-08-09 10:33:00,
2013-08-09 05:39:00,70.0,67.3,29.51,NNE,22,3.0,4.0,91,0.00,,,0.04,meteohub,2013-08-09 10:39:00,
2013-08-09 05:44:00,70.0,67.3,29.51,NNE,22,2.0,4.0,91,0.00,,,0.04,meteohub,2013-08-09 10:44:00,
2013-08-09 05:49:00,69.8,67.1,29.51,North,0,2.0,4.0,91,0.00,,,0.04,meteohub,2013-08-09 10:49:00,
2013-08-09 05:54:00,69.6,66.9,29.51,North,0,3.0,4.0,91,0.00,,,0.04,meteohub,2013-08-09 10:54:00,
2013-08-09 05:59:00,69.6,66.9,29.48,North,0,2.0,4.0,91,0.00,,,0.04,meteohub,2013-08-09 10:59:00,
2013-08-09 06:05:00,69.4,66.7,29.48,NNW,338,3.0,4.0,91,0.00,,,0.04,meteohub,2013-08-09 11:05:00,
2013-08-09 06:10:00,69.4,66.4,29.48,WNW,292,2.0,5.0,90,0.00,,,0.04,meteohub,2013-08-09 11:10:00,
2013-08-09 06:16:00,69.4,66.4,29.51,NNE,22,2.0,5.0,90,0.00,,,0.04,meteohub,2013-08-09 11:16:00,
2013-08-09 06:21:00,69.4,66.4,29.51,North,0,3.0,5.0,90,0.00,,,0.04,meteohub,2013-08-09 11:21:00,
2013-08-09 06:26:00,69.3,66.2,29.51,NNE,22,3.0,4.0,90,0.00,,,0.04,meteohub,2013-08-09 11:26:00,
2013-08-09 06:32:00,69.3,66.2,29.51,North,0,4.0,4.0,90,0.00,,,0.04,meteohub,2013-08-09 11:32:00,
2013-08-09 06:37:00,69.3,66.2,29.51,NNW,338,5.0,5.0,90,0.00,,,0.04,meteohub,2013-08-09 11:37:00,
2013-08-09 06:42:00,69.3,66.2,29.51,North,0,4.0,5.0,90,0.00,,,0.04,meteohub,2013-08-09 11:42:00,
2013-08-09 06:47:00,69.3,66.2,29.51,NNE,22,3.0,6.0,90,0.00,,,0.04,meteohub,2013-08-09 11:47:00,
2013-08-09 06:52:00,69.3,66.2,29.51,NE,45,4.0,6.0,90,0.00,,,0.04,meteohub,2013-08-09 11:52:00,
2013-08-09 06:58:00,69.1,65.7,29.51,NNE,22,4.0,6.0,89,0.00,,,0.04,meteohub,2013-08-09 11:58:00,
2013-08-09 07:03:00,69.3,65.8,29.51,NE,45,4.0,7.0,89,0.00,,,0.04,meteohub,2013-08-09 12:03:00,
2013-08-09 07:08:00,69.3,65.5,29.51,NNE,22,4.0,7.0,88,0.00,,,0.04,meteohub,2013-08-09 12:08:00,
2013-08-09 07:13:00,69.3,65.3,29.51,NE,45,5.0,6.0,87,0.00,,,0.04,meteohub,2013-08-09 12:13:00,
2013-08-09 07:19:00,69.3,64.9,29.51,North,0,6.0,6.0,86,0.00,,,0.04,meteohub,2013-08-09 12:19:00,
2013-08-09 07:24:00,69.4,65.1,29.51,NE,45,5.0,6.0,86,0.00,,,0.04,meteohub,2013-08-09 12:24:00,
2013-08-09 07:29:00,69.4,65.1,29.51,NE,45,5.0,6.0,86,0.00,,,0.04,meteohub,2013-08-09 12:29:00,
2013-08-09 07:35:00,69.4,64.8,29.51,NE,45,5.0,6.0,85,0.00,,,0.04,meteohub,2013-08-09 12:35:00,
2013-08-09 07:41:00,69.4,64.8,29.51,NNE,22,4.0,6.0,85,0.00,,,0.04,meteohub,2013-08-09 12:41:00,
2013-08-09 07:46:00,69.6,64.9,29.51,NE,45,5.0,6.0,85,0.00,,,0.04,meteohub,2013-08-09 12:46:00,
2013-08-09 07:51:00,69.8,64.8,29.51,NNE,22,2.0,6.0,84,0.00,,,0.04,meteohub,2013-08-09 12:51:00,
2013-08-09 07:56:00,69.8,64.8,29.51,NNE,22,6.0,6.0,84,0.00,,,0.04,meteohub,2013-08-09 12:56:00,
2013-08-09 08:02:00,70.0,64.6,29.51,North,0,7.0,8.0,83,0.00,,,0.04,meteohub,2013-08-09 13:02:00,
2013-08-09 08:07:00,69.8,64.0,29.51,NE,45,6.0,9.0,82,0.00,,,0.04,meteohub,2013-08-09 13:07:00,
2013-08-09 08:12:00,70.0,63.9,29.51,NE,45,6.0,9.0,81,0.00,,,0.04,meteohub,2013-08-09 13:12:00,
2013-08-09 08:17:00,70.2,64.0,29.51,North,0,6.0,9.0,81,0.00,,,0.04,meteohub,2013-08-09 13:17:00,
2013-08-09 08:22:00,70.7,64.9,29.51,North,0,4.0,8.0,82,0.00,,,0.04,meteohub,2013-08-09 13:22:00,
2013-08-09 08:27:00,70.9,65.1,29.51,NNE,22,5.0,8.0,82,0.00,,,0.04,meteohub,2013-08-09 13:27:00,
2013-08-09 08:33:00,71.2,65.1,29.51,NNE,22,4.0,6.0,81,0.00,,,0.04,meteohub,2013-08-09 13:33:00,
2013-08-09 08:38:00,71.8,65.7,29.51,North,0,4.0,6.0,81,0.00,,,0.04,meteohub,2013-08-09 13:38:00,
2013-08-09 08:43:00,72.0,65.8,29.51,North,0,4.0,6.0,81,0.00,,,0.04,meteohub,2013-08-09 13:43:00,
2013-08-09 08:48:00,72.1,65.7,29.51,NE,45,4.0,6.0,80,0.00,,,0.04,meteohub,2013-08-09 13:48:00,
2013-08-09 08:53:00,72.1,65.7,29.51,NE,45,5.0,6.0,80,0.00,,,0.04,meteohub,2013-08-09 13:53:00,
2013-08-09 08:58:00,72.1,65.3,29.51,NE,45,5.0,6.0,79,0.00,,,0.04,meteohub,2013-08-09 13:58:00,
2013-08-09 09:04:00,72.5,66.0,29.51,ENE,68,3.0,8.0,80,0.00,,,0.04,meteohub,2013-08-09 14:04:00,
2013-08-09 09:09:00,72.9,66.4,29.51,East,90,4.0,8.0,80,0.00,,,0.04,meteohub,2013-08-09 14:09:00,
2013-08-09 09:15:00,73.0,66.2,29.51,NNE,22,6.0,8.0,79,0.00,,,0.04,meteohub,2013-08-09 14:15:00,
2013-08-09 09:20:00,73.4,66.6,29.51,NE,45,3.0,6.0,79,0.00,,,0.04,meteohub,2013-08-09 14:20:00,
2013-08-09 09:25:00,73.6,66.4,29.51,NNE,22,5.0,8.0,78,0.00,,,0.04,meteohub,2013-08-09 14:25:00,
2013-08-09 09:30:00,73.9,66.2,29.51,NNE,22,6.0,8.0,77,0.00,,,0.04,meteohub,2013-08-09 14:30:00,
2013-08-09 09:36:00,74.3,66.9,29.51,NNE,22,4.0,8.0,78,0.00,,,0.04,meteohub,2013-08-09 14:36:00,
2013-08-09 09:41:00,74.5,66.7,29.51,NNE,22,2.0,6.0,77,0.00,,,0.04,meteohub,2013-08-09 14:41:00,
2013-08-09 09:47:00,75.0,67.3,29.54,NE,45,3.0,6.0,77,0.00,,,0.04,meteohub,2013-08-09 14:47:00,
2013-08-09 09:52:00,75.0,66.2,29.54,East,90,6.0,6.0,74,0.00,,,0.04,meteohub,2013-08-09 14:52:00,
2013-08-09 09:57:00,75.7,66.9,29.54,ENE,68,2.0,6.0,74,0.00,,,0.04,meteohub,2013-08-09 14:57:00,
2013-08-09 10:02:00,76.1,67.3,29.54,East,90,4.0,6.0,74,0.00,,,0.04,meteohub,2013-08-09 15:02:00,
2013-08-09 10:07:00,76.5,66.0,29.54,ENE,68,2.0,6.0,70,0.00,,,0.04,meteohub,2013-08-09 15:07:00,
2013-08-09 10:12:00,76.8,66.7,29.54,East,90,3.0,6.0,71,0.00,,,0.04,meteohub,2013-08-09 15:12:00,
2013-08-09 10:17:00,77.4,67.3,29.54,East,90,3.0,6.0,71,0.00,,,0.04,meteohub,2013-08-09 15:17:00,
2013-08-09 10:22:00,78.3,67.3,29.54,NE,45,2.0,6.0,69,0.00,,,0.04,meteohub,2013-08-09 15:22:00,
2013-08-09 10:27:00,78.4,66.2,29.54,NE,45,4.0,6.0,66,0.00,,,0.04,meteohub,2013-08-09 15:27:00,
2013-08-09 10:32:00,78.6,65.8,29.54,East,90,3.0,9.0,65,0.00,,,0.04,meteohub,2013-08-09 15:32:00,
2013-08-09 10:36:00,78.8,66.9,29.54,ENE,68,1.0,9.0,67,0.00,,,0.04,meteohub,2013-08-09 15:36:00,
2013-08-09 10:41:00,78.4,66.6,29.54,East,90,3.0,6.0,67,0.00,,,0.04,meteohub,2013-08-09 15:41:00,
2013-08-09 10:46:00,78.4,66.2,29.57,ESE,112,4.0,6.0,66,0.00,,,0.04,meteohub,2013-08-09 15:46:00,
2013-08-09 10:52:00,77.9,65.1,29.57,NNE,22,4.0,6.0,65,0.00,,,0.04,meteohub,2013-08-09 15:52:00,
2013-08-09 10:57:00,77.9,65.1,29.57,NE,45,4.0,6.0,65,0.00,,,0.04,meteohub,2013-08-09 15:57:00,
2013-08-09 11:02:00,78.3,65.5,29.57,NE,45,3.0,6.0,65,0.00,,,0.04,meteohub,2013-08-09 16:02:00,
2013-08-09 11:07:00,78.6,65.5,29.57,NNE,22,6.0,6.0,64,0.00,,,0.04,meteohub,2013-08-09 16:07:00,
2013-08-09 11:12:00,79.2,66.4,29.57,NE,45,7.0,7.0,65,0.00,,,0.04,meteohub,2013-08-09 16:12:00,
2013-08-09 11:18:00,79.7,65.5,29.57,East,90,1.0,7.0,62,0.00,,,0.04,meteohub,2013-08-09 16:18:00,
2013-08-09 11:23:00,80.2,66.9,29.57,North,0,1.0,7.0,64,0.00,,,0.04,meteohub,2013-08-09 16:23:00,
2013-08-09 11:28:00,79.9,64.8,29.57,NNE,22,6.0,7.0,60,0.00,,,0.04,meteohub,2013-08-09 16:28:00,
2013-08-09 11:34:00,79.9,65.3,29.57,NE,45,4.0,7.0,61,0.00,,,0.04,meteohub,2013-08-09 16:34:00,
2013-08-09 11:39:00,79.5,64.4,29.57,ENE,68,2.0,8.0,60,0.00,,,0.04,meteohub,2013-08-09 16:39:00,
2013-08-09 11:44:00,79.9,64.8,29.57,North,0,4.0,8.0,60,0.00,,,0.04,meteohub,2013-08-09 16:44:00,
2013-08-09 11:50:00,79.7,63.7,29.57,East,90,4.0,9.0,58,0.00,,,0.04,meteohub,2013-08-09 16:50:00,
2013-08-09 11:55:00,80.2,64.0,29.57,East,90,4.0,9.0,58,0.00,,,0.04,meteohub,2013-08-09 16:55:00,
2013-08-09 12:00:00,80.1,63.5,29.57,NE,45,5.0,6.0,57,0.00,,,0.04,meteohub,2013-08-09 17:00:00,
2013-08-09 12:05:00,80.2,62.6,29.57,ENE,68,4.0,6.0,55,0.00,,,0.04,meteohub,2013-08-09 17:05:00,
2013-08-09 12:10:00,80.4,62.8,29.57,NNW,338,2.0,6.0,55,0.00,,,0.04,meteohub,2013-08-09 17:10:00,
2013-08-09 12:16:00,80.4,63.3,29.54,NE,45,4.0,6.0,56,0.00,,,0.04,meteohub,2013-08-09 17:16:00,
2013-08-09 12:21:00,80.8,62.6,29.54,North,0,6.0,8.0,54,0.00,,,0.04,meteohub,2013-08-09 17:21:00,
2013-08-09 12:26:00,80.2,61.0,29.54,North,0,3.0,8.0,52,0.00,,,0.04,meteohub,2013-08-09 17:26:00,
2013-08-09 12:32:00,80.4,62.2,29.54,NNE,22,6.0,8.0,54,0.00,,,0.04,meteohub,2013-08-09 17:32:00,
2013-08-09 12:37:00,81.3,62.6,29.54,NNW,338,3.0,7.0,53,0.00,,,0.04,meteohub,2013-08-09 17:37:00,
2013-08-09 12:42:00,81.5,63.3,29.54,SSW,202,2.0,7.0,54,0.00,,,0.04,meteohub,2013-08-09 17:42:00,
2013-08-09 12:47:00,81.7,61.9,29.57,NE,45,5.0,7.0,51,0.00,,,0.04,meteohub,2013-08-09 17:47:00,
2013-08-09 12:52:00,82.2,61.7,29.57,NE,45,5.0,8.0,50,0.00,,,0.04,meteohub,2013-08-09 17:52:00,
2013-08-09 12:57:00,81.7,60.1,29.57,East,90,3.0,8.0,48,0.00,,,0.04,meteohub,2013-08-09 17:57:00,
2013-08-09 13:02:00,81.5,60.4,29.57,East,90,1.0,8.0,49,0.00,,,0.04,meteohub,2013-08-09 18:02:00,
2013-08-09 13:07:00,81.7,58.8,29.57,ENE,68,4.0,6.0,46,0.00,,,0.04,meteohub,2013-08-09 18:07:00,
2013-08-09 13:12:00,81.7,58.8,29.57,East,90,3.0,6.0,46,0.00,,,0.04,meteohub,2013-08-09 18:12:00,
2013-08-09 13:17:00,81.9,59.7,29.54,NE,45,3.0,6.0,47,0.00,,,0.04,meteohub,2013-08-09 18:17:00,
2013-08-09 13:22:00,82.0,60.4,29.54,SE,135,1.0,6.0,48,0.00,,,0.04,meteohub,2013-08-09 18:22:00,
2013-08-09 13:27:00,82.2,60.6,29.54,East,90,4.0,6.0,48,0.00,,,0.04,meteohub,2013-08-09 18:27:00,
2013-08-09 13:33:00,82.0,59.9,29.57,North,0,3.0,6.0,47,0.00,,,0.04,meteohub,2013-08-09 18:33:00,
2013-08-09 13:39:00,82.0,59.9,29.57,NW,315,2.0,4.0,47,0.00,,,0.04,meteohub,2013-08-09 18:39:00,
2013-08-09 13:44:00,81.9,59.7,29.57,NNE,22,4.0,4.0,47,0.00,,,0.04,meteohub,2013-08-09 18:44:00,
2013-08-09 13:49:00,81.7,59.5,29.57,NE,45,2.0,6.0,47,0.00,,,0.04,meteohub,2013-08-09 18:49:00,
2013-08-09 13:55:00,81.3,59.7,29.57,ENE,68,3.0,6.0,48,0.00,,,0.04,meteohub,2013-08-09 18:55:00,
2013-08-09 14:00:00,81.3,59.7,29.57,ENE,68,4.0,4.0,48,0.00,,,0.04,meteohub,2013-08-09 19:00:00,
2013-08-09 14:05:00,81.5,59.9,29.57,North,0,3.0,4.0,48,0.00,,,0.04,meteohub,2013-08-09 19:05:00,
2013-08-09 14:10:00,82.0,61.0,29.57,NE,45,2.0,5.0,49,0.00,,,0.04,meteohub,2013-08-09 19:10:00,
2013-08-09 14:15:00,82.0,61.0,29.57,NNW,338,3.0,5.0,49,0.00,,,0.04,meteohub,2013-08-09 19:15:00,
2013-08-09 14:21:00,81.9,60.8,29.57,North,0,4.0,5.0,49,0.00,,,0.04,meteohub,2013-08-09 19:21:00,
2013-08-09 14:27:00,81.7,60.6,29.57,NNW,338,3.0,4.0,49,0.00,,,0.04,meteohub,2013-08-09 19:27:00,
2013-08-09 14:32:00,81.3,60.3,29.57,North,0,3.0,5.0,49,0.00,,,0.04,meteohub,2013-08-09 19:32:00,
2013-08-09 14:37:00,81.1,60.8,29.57,NNE,22,3.0,5.0,50,0.00,,,0.04,meteohub,2013-08-09 19:37:00,
2013-08-09 14:43:00,80.8,59.9,29.57,NNE,22,4.0,5.0,49,0.00,,,0.04,meteohub,2013-08-09 19:43:00,
2013-08-09 14:48:00,80.6,59.2,29.57,North,0,3.0,4.0,48,0.00,,,0.04,meteohub,2013-08-09 19:48:00,
2013-08-09 14:54:00,80.6,59.7,29.57,NNE,22,2.0,4.0,49,0.00,,,0.04,meteohub,2013-08-09 19:54:00,
2013-08-09 14:59:00,80.4,59.5,29.57,NW,315,4.0,4.0,49,0.00,,,0.04,meteohub,2013-08-09 19:59:00,
2013-08-09 15:04:00,80.2,59.4,29.57,WNW,292,2.0,4.0,49,0.00,,,0.04,meteohub,2013-08-09 20:04:00,
2013-08-09 15:09:00,80.2,59.9,29.57,NW,315,2.0,4.0,50,0.00,,,0.04,meteohub,2013-08-09 20:09:00,
2013-08-09 15:15:00,80.1,60.8,29.54,North,0,1.0,4.0,52,0.00,,,0.04,meteohub,2013-08-09 20:15:00,
2013-08-09 15:20:00,79.9,60.6,29.54,WNW,292,2.0,4.0,52,0.00,,,0.04,meteohub,2013-08-09 20:20:00,
2013-08-09 15:25:00,79.7,61.5,29.54,NNW,338,3.0,4.0,54,0.00,,,0.04,meteohub,2013-08-09 20:25:00,
2013-08-09 15:30:00,79.7,63.1,29.54,NNE,22,4.0,4.0,57,0.00,,,0.04,meteohub,2013-08-09 20:30:00,
2013-08-09 15:35:00,79.5,63.5,29.54,North,0,4.0,4.0,58,0.00,,,0.04,meteohub,2013-08-09 20:35:00,
2013-08-09 15:40:00,79.7,65.1,29.54,NNW,338,3.0,5.0,61,0.00,,,0.04,meteohub,2013-08-09 20:40:00,
2013-08-09 15:45:00,79.7,65.1,29.51,NNW,338,3.0,5.0,61,0.00,,,0.04,meteohub,2013-08-09 20:45:00,
2013-08-09 15:51:00,79.7,65.5,29.51,NNE,22,4.0,4.0,62,0.00,,,0.04,meteohub,2013-08-09 20:51:00,
2013-08-09 15:56:00,79.5,65.3,29.51,NNE,22,4.0,6.0,62,0.00,,,0.04,meteohub,2013-08-09 20:56:00,
2013-08-09 16:01:00,79.3,64.8,29.51,NE,45,5.0,6.0,61,0.00,,,0.04,meteohub,2013-08-09 21:01:00,
2013-08-09 16:07:00,79.2,64.0,29.51,NNE,22,4.0,6.0,60,0.00,,,0.04,meteohub,2013-08-09 21:07:00,
2013-08-09 16:12:00,79.3,64.2,29.51,NNW,338,5.0,6.0,60,0.00,,,0.04,meteohub,2013-08-09 21:12:00,
2013-08-09 16:18:00,79.2,63.7,29.48,NNE,22,3.0,7.0,59,0.00,,,0.04,meteohub,2013-08-09 21:18:00,
2013-08-09 16:23:00,79.2,63.7,29.48,North,0,4.0,7.0,59,0.00,,,0.04,meteohub,2013-08-09 21:23:00,
2013-08-09 16:28:00,79.2,63.7,29.51,NNE,22,3.0,7.0,59,0.00,,,0.04,meteohub,2013-08-09 21:28:00,
2013-08-09 16:33:00,79.2,63.1,29.51,North,0,4.0,6.0,58,0.00,,,0.04,meteohub,2013-08-09 21:33:00,
2013-08-09 16:39:00,79.2,63.7,29.51,North,0,5.0,5.0,59,0.00,,,0.04,meteohub,2013-08-09 21:39:00,
2013-08-09 16:44:00,79.2,63.1,29.51,NNW,338,3.0,6.0,58,0.00,,,0.04,meteohub,2013-08-09 21:44:00,
2013-08-09 16:49:00,79.0,63.0,29.51,North,0,4.0,6.0,58,0.00,,,0.04,meteohub,2013-08-09 21:49:00,
2013-08-09 16:54:00,79.0,63.0,29.51,North,0,2.0,6.0,58,0.00,,,0.04,meteohub,2013-08-09 21:54:00,
2013-08-09 16:59:00,79.0,63.5,29.54,NNE,22,4.0,6.0,59,0.00,,,0.04,meteohub,2013-08-09 21:59:00,
2013-08-09 17:05:00,79.0,63.5,29.54,North,0,3.0,6.0,59,0.00,,,0.04,meteohub,2013-08-09 22:05:00,
2013-08-09 17:10:00,78.8,63.3,29.54,North,0,1.0,4.0,59,0.00,,,0.04,meteohub,2013-08-09 22:10:00,
2013-08-09 17:15:00,79.0,63.5,29.51,North,0,3.0,4.0,59,0.00,,,0.04,meteohub,2013-08-09 22:15:00,
2013-08-09 17:20:00,79.2,63.7,29.51,NE,45,2.0,4.0,59,0.00,,,0.04,meteohub,2013-08-09 22:20:00,
2013-08-09 17:26:00,79.2,63.7,29.51,North,0,3.0,4.0,59,0.00,,,0.04,meteohub,2013-08-09 22:26:00,
2013-08-09 17:31:00,79.2,63.7,29.51,East,90,3.0,4.0,59,0.00,,,0.04,meteohub,2013-08-09 22:31:00,
2013-08-09 17:36:00,79.2,63.7,29.51,NE,45,3.0,3.0,59,0.00,,,0.04,meteohub,2013-08-09 22:36:00,
2013-08-09 17:41:00,79.0,63.5,29.51,East,90,2.0,4.0,59,0.00,,,0.04,meteohub,2013-08-09 22:41:00,
2013-08-09 17:46:00,79.2,64.0,29.51,ENE,68,3.0,4.0,60,0.00,,,0.04,meteohub,2013-08-09 22:46:00,
2013-08-09 17:52:00,79.0,63.9,29.51,North,0,2.0,4.0,60,0.00,,,0.04,meteohub,2013-08-09 22:52:00,
2013-08-09 17:57:00,79.0,63.9,29.51,North,0,2.0,4.0,60,0.00,,,0.04,meteohub,2013-08-09 22:57:00,
2013-08-09 18:02:00,79.0,63.9,29.51,NE,45,3.0,4.0,60,0.00,,,0.04,meteohub,2013-08-09 23:02:00,
2013-08-09 18:07:00,79.0,63.9,29.51,NE,45,2.0,5.0,60,0.00,,,0.04,meteohub,2013-08-09 23:07:00,
2013-08-09 18:12:00,79.0,63.5,29.51,NNE,22,5.0,5.0,59,0.00,,,0.04,meteohub,2013-08-09 23:12:00,
2013-08-09 18:17:00,79.2,63.1,29.48,NE,45,4.0,6.0,58,0.00,,,0.04,meteohub,2013-08-09 23:17:00,
2013-08-09 18:22:00,79.2,63.1,29.48,NE,45,6.0,6.0,58,0.00,,,0.04,meteohub,2013-08-09 23:22:00,
2013-08-09 18:27:00,79.3,63.3,29.48,North,0,2.0,7.0,58,0.00,,,0.04,meteohub,2013-08-09 23:27:00,
2013-08-09 18:32:00,79.0,62.4,29.51,NNE,22,6.0,7.0,57,0.00,,,0.04,meteohub,2013-08-09 23:32:00,
2013-08-09 18:37:00,79.0,61.5,29.51,NNE,22,4.0,7.0,55,0.00,,,0.04,meteohub,2013-08-09 23:37:00,
2013-08-09 18:42:00,79.0,62.4,29.51,North,0,4.0,8.0,57,0.00,,,0.04,meteohub,2013-08-09 23:42:00,
2013-08-09 18:47:00,78.8,62.2,29.51,North,0,3.0,8.0,57,0.00,,,0.04,meteohub,2013-08-09 23:47:00,
2013-08-09 18:52:00,78.8,62.2,29.51,NNE,22,4.0,6.0,57,0.00,,,0.04,meteohub,2013-08-09 23:52:00,
2013-08-09 18:57:00,78.4,61.9,29.54,NNW,338,7.0,7.0,57,0.00,,,0.04,meteohub,2013-08-09 23:57:00,
2013-08-09 19:02:00,78.4,61.9,29.54,NNE,22,5.0,7.0,57,0.00,,,0.04,meteohub,2013-08-10 00:02:00,
2013-08-09 19:08:00,78.3,61.7,29.54,NNW,338,4.0,7.0,57,0.00,,,0.00,meteohub,2013-08-10 00:08:00,
2013-08-09 19:13:00,78.1,61.5,29.54,North,0,5.0,7.0,57,0.00,,,0.00,meteohub,2013-08-10 00:13:00,
2013-08-09 19:18:00,77.9,62.4,29.54,NNW,338,2.0,6.0,59,0.00,,,0.00,meteohub,2013-08-10 00:18:00,
2013-08-09 19:23:00,77.7,62.2,29.54,NNW,338,3.0,6.0,59,0.00,,,0.00,meteohub,2013-08-10 00:23:00,
2013-08-09 19:29:00,77.5,62.1,29.54,NE,45,5.0,6.0,59,0.00,,,0.00,meteohub,2013-08-10 00:29:00,
2013-08-09 19:34:00,77.4,61.9,29.54,North,0,3.0,6.0,59,0.00,,,0.00,meteohub,2013-08-10 00:34:00,
2013-08-09 19:39:00,77.2,61.7,29.54,NNE,22,3.0,6.0,59,0.00,,,0.00,meteohub,2013-08-10 00:39:00,
2013-08-09 19:44:00,77.0,62.1,29.54,NNE,22,3.0,6.0,60,0.00,,,0.00,meteohub,2013-08-10 00:44:00,
2013-08-09 19:50:00,76.8,62.4,29.54,NNE,22,3.0,6.0,61,0.00,,,0.00,meteohub,2013-08-10 00:50:00,
2013-08-09 19:55:00,76.6,62.6,29.54,NE,45,4.0,4.0,62,0.00,,,0.00,meteohub,2013-08-10 00:55:00,
2013-08-09 20:00:00,76.5,63.0,29.54,NNE,22,3.0,4.0,63,0.00,,,0.00,meteohub,2013-08-10 01:00:00,
2013-08-09 20:05:00,76.3,63.1,29.54,NNE,22,3.0,4.0,64,0.00,,,0.00,meteohub,2013-08-10 01:05:00,
2013-08-09 20:11:00,76.1,63.0,29.54,North,0,2.0,4.0,64,0.00,,,0.00,meteohub,2013-08-10 01:11:00,
2013-08-09 20:16:00,75.9,62.8,29.54,North,0,3.0,4.0,64,0.00,,,0.00,meteohub,2013-08-10 01:16:00,
2013-08-09 20:21:00,75.9,62.8,29.54,NNE,22,2.0,4.0,64,0.00,,,0.00,meteohub,2013-08-10 01:21:00,
2013-08-09 20:26:00,75.7,63.1,29.54,ENE,68,2.0,4.0,65,0.00,,,0.00,meteohub,2013-08-10 01:26:00,
2013-08-09 20:32:00,75.6,63.0,29.57,NE,45,3.0,4.0,65,0.00,,,0.00,meteohub,2013-08-10 01:32:00,
2013-08-09 20:37:00,75.6,63.0,29.57,NNE,22,3.0,4.0,65,0.00,,,0.00,meteohub,2013-08-10 01:37:00,
2013-08-09 20:42:00,75.4,62.8,29.57,NNE,22,3.0,4.0,65,0.00,,,0.00,meteohub,2013-08-10 01:42:00,
2013-08-09 20:47:00,75.2,63.1,29.57,NE,45,3.0,5.0,66,0.00,,,0.00,meteohub,2013-08-10 01:47:00,
2013-08-09 20:52:00,75.2,63.1,29.57,North,0,3.0,5.0,66,0.00,,,0.00,meteohub,2013-08-10 01:52:00,
2013-08-09 20:57:00,75.2,63.1,29.57,NNE,22,2.0,4.0,66,0.00,,,0.00,meteohub,2013-08-10 01:57:00,
2013-08-09 21:03:00,75.0,63.0,29.57,North,0,2.0,4.0,66,0.00,,,0.00,meteohub,2013-08-10 02:03:00,
2013-08-09 21:08:00,74.8,62.8,29.57,North,0,3.0,4.0,66,0.00,,,0.00,meteohub,2013-08-10 02:08:00,
2013-08-09 21:14:00,74.8,62.8,29.57,NNE,22,3.0,4.0,66,0.00,,,0.00,meteohub,2013-08-10 02:14:00,
2013-08-09 21:19:00,74.8,62.8,29.57,NE,45,3.0,4.0,66,0.00,,,0.00,meteohub,2013-08-10 02:19:00,
2013-08-09 21:24:00,74.7,62.6,29.57,North,0,4.0,4.0,66,0.00,,,0.00,meteohub,2013-08-10 02:24:00,
2013-08-09 21:29:00,74.7,62.6,29.57,NNE,22,3.0,4.0,66,0.00,,,0.00,meteohub,2013-08-10 02:29:00,
2013-08-09 21:34:00,74.5,62.4,29.57,North,0,3.0,4.0,66,0.00,,,0.00,meteohub,2013-08-10 02:34:00,
2013-08-09 21:40:00,74.5,62.4,29.57,North,0,2.0,4.0,66,0.00,,,0.00,meteohub,2013-08-10 02:40:00,
2013-08-09 21:45:00,74.5,62.4,29.57,NNE,22,2.0,4.0,66,0.00,,,0.00,meteohub,2013-08-10 02:45:00,
2013-08-09 21:50:00,74.3,62.2,29.57,North,0,2.0,4.0,66,0.00,,,0.00,meteohub,2013-08-10 02:50:00,
2013-08-09 21:56:00,74.3,62.2,29.57,NNW,338,3.0,3.0,66,0.00,,,0.00,meteohub,2013-08-10 02:56:00,
2013-08-09 22:02:00,74.3,62.2,29.57,NNW,338,2.0,4.0,66,0.00,,,0.00,meteohub,2013-08-10 03:02:00,
2013-08-09 22:07:00,74.1,62.1,29.57,NNW,338,2.0,4.0,66,0.00,,,0.00,meteohub,2013-08-10 03:07:00,
2013-08-09 22:12:00,74.1,62.4,29.57,North,0,2.0,4.0,67,0.00,,,0.00,meteohub,2013-08-10 03:12:00,
2013-08-09 22:17:00,73.9,62.2,29.57,North,0,2.0,3.0,67,0.00,,,0.00,meteohub,2013-08-10 03:17:00,
2013-08-09 22:22:00,73.9,62.2,29.57,NE,45,3.0,3.0,67,0.00,,,0.00,meteohub,2013-08-10 03:22:00,
2013-08-09 22:27:00,73.9,62.2,29.57,NNE,22,3.0,3.0,67,0.00,,,0.00,meteohub,2013-08-10 03:27:00,
2013-08-09 22:32:00,73.8,62.1,29.57,NE,45,2.0,4.0,67,0.00,,,0.00,meteohub,2013-08-10 03:32:00,
2013-08-09 22:38:00,73.8,62.6,29.57,North,0,2.0,4.0,68,0.00,,,0.00,meteohub,2013-08-10 03:38:00,
2013-08-09 22:43:00,73.6,61.9,29.57,NE,45,3.0,3.0,67,0.00,,,0.00,meteohub,2013-08-10 03:43:00,
2013-08-09 22:48:00,73.6,61.9,29.57,NE,45,1.0,4.0,67,0.00,,,0.00,meteohub,2013-08-10 03:48:00,
2013-08-09 22:54:00,73.6,61.9,29.57,North,0,3.0,4.0,67,0.00,,,0.00,meteohub,2013-08-10 03:54:00,
2013-08-09 22:59:00,73.8,62.1,29.57,North,0,0.0,3.0,67,0.00,,,0.00,meteohub,2013-08-10 03:59:00,
2013-08-09 23:01:00,73.8,62.1,29.57,NE,45,1.0,3.0,67,0.00,,,0.00,meteohub,2013-08-10 04:01:00,
2013-08-09 23:02:00,73.8,62.1,29.57,NE,45,2.0,3.0,67,0.00,,,0.00,meteohub,2013-08-10 04:02:00,
2013-08-09 23:05:00,73.6,61.9,29.57,NE,45,2.0,3.0,67,0.00,,,0.00,meteohub,2013-08-10 04:05:00,
2013-08-09 23:07:00,73.6,61.9,29.57,North,0,3.0,3.0,67,0.00,,,0.00,meteohub,2013-08-10 04:07:00,
2013-08-09 23:13:00,73.6,61.9,29.57,NNE,22,2.0,3.0,67,0.00,,,0.00,meteohub,2013-08-10 04:13:00,
2013-08-09 23:18:00,73.6,62.4,29.57,NNE,22,0.0,3.0,68,0.00,,,0.00,meteohub,2013-08-10 04:18:00,
2013-08-09 23:23:00,73.2,62.4,29.57,NNE,22,0.0,3.0,69,0.00,,,0.00,meteohub,2013-08-10 04:23:00,
2013-08-09 23:28:00,73.0,62.6,29.60,NNE,22,0.0,2.0,70,0.00,,,0.00,meteohub,2013-08-10 04:28:00,
2013-08-09 23:34:00,73.0,62.2,29.60,NNE,22,2.0,0.0,69,0.00,,,0.00,meteohub,2013-08-10 04:34:00,
2013-08-09 23:39:00,73.2,62.4,29.60,NNE,22,3.0,3.0,69,0.00,,,0.00,meteohub,2013-08-10 04:39:00,
2013-08-09 23:44:00,73.2,62.4,29.57,NNE,22,0.0,3.0,69,0.00,,,0.00,meteohub,2013-08-10 04:44:00,
2013-08-09 23:50:00,73.0,62.2,29.57,NNE,22,2.0,3.0,69,0.00,,,0.00,meteohub,2013-08-10 04:50:00,
2013-08-09 23:55:00,73.0,62.2,29.57,NNE,22,1.0,3.0,69,0.00,,,0.00,meteohub,2013-08-10 04:55:00,